Regional Weather Roundup
Issued by NWS

Home | Current Version | Previous Version | Text Only | Print | Product List | Glossary On
Versions: 1 2 3 4 5 6 7 8 9 10 11 12 13 14 15 16 17 18 19 20 21 22 23 24 25 26 27 28 29 30 31 32 33 34 35 36 37 38 39 40 41 42 43 44 45 46 47 48 49 50
000
ASUS43 KLSX 310407
RWRMO

WEATHER SUMMARY FOR MISSOURI
NATIONAL WEATHER SERVICE SPRINGFIELD MO
1100 PM CDT SAT AUG 30 2014

NOTE: "FAIR" INDICATES FEW OR NO CLOUDS BELOW 12,000 FEET WITH NO
       SIGNIFICANT WEATHER AND/OR OBSTRUCTIONS TO VISIBILITY.
       CURRENT SKY AND/OR WEATHER CONDITIONS ARE NOT AVAILABLE FOR
       CHILLICOTHE AND FARMINGTON.

MOZ001>031-035>038-043-044-053-054-310500-
...NORTHERN AND WESTERN MISSOURI...

CITY           SKY/WX    TMP DP  RH WIND       PRES   REMARKS
KANSAS CTY INT CLEAR     74  68  81 SE7       29.91S
KANSAS C DTWN  CLEAR     77  67  71 E5        29.89S
LEE`S SUMMIT   CLEAR     75  67  76 SE8       29.92S
ST JOSEPH      CLEAR     68  66  93 CALM      29.89S
CHILLICOTHE      N/A     70  68  93 CALM      29.92S
KIRKSVILLE     CLEAR     69  67  93 CALM      29.93S

$$
MOZ066>068-077>081-088>096-101>105-310500-
...SOUTHWEST MISSOURI...

CITY           SKY/WX    TMP DP  RH WIND       PRES   REMARKS
SPRINGFIELD    CLEAR     70  66  87 S10       29.96R
JOPLIN         CLEAR     76  67  73 SE7       29.94S

$$
MOZ032>034-039>042-045>050-055>058-069>072-310500-
...CENTRAL MISSOURI...

CITY           SKY/WX    TMP DP  RH WIND       PRES   REMARKS
COLUMBIA       MOCLDY    72  69  90 S5        29.94R
JEFFERSON CITY MOCLDY    72  68  87 E5        29.92S
ROLLA          PTCLDY    69  67  93 S7        29.95R
SEDALIA        CLEAR     75  68  78 S7        29.93S
WHITEMAN AFB   CLEAR     71  67  87 S5        29.92R
OSAGE BEACH    PTCLDY    73  66  78 S5        29.94R

$$
MOZ051-052-059>065-310500-
...EAST CENTRAL MISSOURI...

CITY           SKY/WX    TMP DP  RH WIND       PRES   REMARKS
ST LOUIS INTL  PTCLDY    78  72  81 S8        29.94S
SPIRIT OF STL  PTCLDY    76  70  82 S3        29.93R
ST CHARLES     PTCLDY    75  71  87 S5        29.92S

$$
MOZ072>076-082>087-097>100-106>115-310500-
...SOUTH CENTRAL AND SOUTHEAST MISSOURI...

CITY           SKY/WX    TMP DP  RH WIND       PRES   REMARKS
CAPE GIRARDEAU CLOUDY    74  71  91 S6        29.99S
FARMINGTON     CLOUDY    73  70  88 S12       30.00R
POPLAR BLUFF   CLOUDY    75  70  84 CALM      29.97R
WEST PLAINS    CLEAR     73  69  87 S3        30.01R

$$


USA.gov is the U.S. government's official web portal to all federal, state and local government web resources and services.